Weather History for Los Angeles Downtown, CA

Change the Weather History Date:

Thursday, September 6, 2012

  Actual Average Record
Temperature  
Mean Temperature 78 °F 74 °F  
Max Temperature 88 °F 84 °F 102 °F (1955)
Min Temperature 68 °F 64 °F 48 °F (1898)
Degree Days  
Heating Degree Days 0 0  
Month to date heating degree days 0 0  
Since 1 July heating degree days 0 0  
Cooling Degree Days 13 9  
Month to date cooling degree days 67 54  
Year to date cooling degree days 799 888  
Growing Degree Days 28 (Base 50)    
Moisture  
Dew Point 58 °F    
Average Humidity 56    
Maximum Humidity 76    
Minimum Humidity 36    
Precipitation  
Precipitation 0.00 in 0.00 in 0.17 in (1965)
Month to date precipitation T 0.01  
Year to date precipitation 4.94 10.67  
Since 1 July precipitation 0.01 0.06  
Sea Level Pressure  
Sea Level Pressure 29.93 in    
Wind  
Wind Speed 2 mph (WSW)    
Max Wind Speed 9 mph    
Max Gust Speed 16 mph    
Visibility 10 miles    
Events      
T = Trace of Precipitation, MM = Missing Value Source: NWS Daily Summary

Daily Weather History Graph

Daily Weather History Graph

Search for Another Location

Airport:

Trip Planner

Search our weather history database for the weather conditions in past years. The results will help you decide how hot, cold, wet, or windy it might be!

Date:

Astronomy

Sep. 06, 2012 Rise Set
Actual Time 6:30 AM PDT 7:11 PM PDT
Civil Twilight 6:05 AM PDT 7:36 PM PDT
Nautical Twilight 5:35 AM PDT 8:06 PM PDT
Astronomical Twilight 5:04 AM PDT 8:36 PM PDT
Moon 10:44 PM PDT (9/6) 12:15 PM PDT (9/6)
Length of Visible Light 13h 31m
Length of Day
12h 40m
Waning Gibbous, 66% of the Moon is Illuminated
Sep 6
Waning Gibbous
Sep 8
Last Quarter
Sep 15
New
Sep 22
First Quarter
Sep 29
Full

Hourly Weather History & Observations

Time (PDT) Temp. Heat Index Dew Point Humidity Pressure Visibility Wind Dir Wind Speed Gust Speed Precip Events Conditions
12:47 AM 69.1 °F - 60.1 °F 73% 29.93 in 10.0 mi Calm Calm - N/A   Clear
1:47 AM 69.1 °F - 60.1 °F 73% 29.92 in 10.0 mi Calm Calm - N/A   Clear
2:47 AM 68.0 °F - 61.0 °F 78% 29.91 in 10.0 mi Calm Calm - N/A   Clear
3:47 AM 69.1 °F - 60.1 °F 73% 29.91 in 10.0 mi Calm Calm - N/A   Clear
4:47 AM 69.1 °F - 60.1 °F 73% 29.91 in 10.0 mi Calm Calm - N/A   Clear
5:47 AM 68.0 °F - 60.1 °F 76% 29.92 in 10.0 mi Calm Calm - N/A   Clear
6:47 AM 69.1 °F - 60.1 °F 73% 29.94 in 10.0 mi Calm Calm - N/A   Clear
7:47 AM 72.0 °F - 62.1 °F 71% 29.96 in 10.0 mi Calm Calm - N/A   Clear
8:47 AM 75.9 °F - 61.0 °F 60% 29.97 in 10.0 mi Calm Calm - N/A   Clear
9:47 AM 79.0 °F - 59.0 °F 50% 29.97 in 10.0 mi SE 3.5 mph - N/A   Clear
10:47 AM 82.0 °F 81.4 °F 55.0 °F 39% 29.96 in 10.0 mi Calm Calm - N/A   Clear
11:47 AM 87.1 °F 85.9 °F 57.0 °F 36% 29.95 in 10.0 mi Calm Calm - N/A   Clear
12:47 PM 86.0 °F 85.0 °F 57.9 °F 38% 29.94 in 10.0 mi Variable 5.8 mph - N/A   Clear
1:47 PM 84.0 °F 82.9 °F 55.0 °F 37% 29.94 in 10.0 mi Variable 6.9 mph - N/A   Clear
2:47 PM 82.9 °F 82.1 °F 55.9 °F 39% 29.93 in 10.0 mi West 6.9 mph - N/A   Clear
3:47 PM 82.0 °F 81.3 °F 54.0 °F 38% 29.91 in 10.0 mi West 5.8 mph - N/A   Clear
4:47 PM 80.1 °F - 51.1 °F 36% 29.91 in 10.0 mi West 5.8 mph - N/A   Clear
5:47 PM 79.0 °F - 54.0 °F 42% 29.91 in 10.0 mi Variable 4.6 mph - N/A   Clear
6:47 PM 75.9 °F - 55.0 °F 48% 29.90 in 10.0 mi Variable 3.5 mph - N/A   Clear
7:47 PM 73.9 °F - 59.0 °F 59% 29.91 in 10.0 mi Variable 3.5 mph - N/A   Clear
8:47 PM 73.0 °F - 61.0 °F 66% 29.93 in 10.0 mi West 4.6 mph - N/A   Clear
9:47 PM 72.0 °F - 60.1 °F 66% 29.95 in 10.0 mi Calm Calm - N/A   Clear
10:47 PM 71.1 °F - 55.9 °F 59% 29.96 in 10.0 mi Calm Calm - N/A   Clear
11:47 PM 71.1 °F - 55.9 °F 59% 29.96 in 10.0 mi Calm Calm - N/A   Clear